Total_Precipitation_Accumulation
0.50 0.63 0.82 0.95 0.95 1.06 0.89 1.10 1.64 2.14 2.22 1.85 1.35 1.39 0.88 0.89 1.26 0.94 0.42 0.37 0.33 0.10 0.02 0.00 0.00 0.00 0.00 0.00 0.00 0.00 0.00 0.00 0.00 0.00 0.00 0.00 0.00 0.00 0.00 0.00 0.00 0.00 0.00
0.38 0.57 0.78 0.92 0.85 0.94 1.14 1.07 1.15 1.49 1.85 1.98 1.75 1.52 1.40 1.00 0.89 0.84 0.66 0.41 0.38 0.24 0.06 0.00 0.00 0.00 0.00 0.00 0.00 0.00 0.00 0.00 0.00 0.00 0.00 0.00 0.00 0.00 0.00 0.00 0.00 0.00 0.00
0.38 0.41 0.56 0.79 0.89 0.90 1.08 1.18 1.28 1.25 1.51 1.56 1.68 1.54 1.40 1.27 1.10 0.94 0.66 0.42 0.30 0.24 0.10 0.02 0.00 0.00 0.00 0.00 0.00 0.00 0.00 0.00 0.00 0.00 0.00 0.00 0.00 0.00 0.00 0.00 0.00 0.00 0.00
0.37 0.46 0.47 0.59 0.70 0.87 1.08 1.24 1.32 1.35 1.39 1.57 1.44 1.34 1.15 1.02 1.02 0.99 0.94 0.64 0.36 0.20 0.15 0.04 0.00 0.00 0.00 0.00 0.00 0.00 0.00 0.00 0.00 0.00 0.00 0.00 0.00 0.00 0.00 0.00 0.00 0.00 0.00
0.24 0.36 0.43 0.58 0.56 0.60 0.85 1.20 1.35 1.51 1.58 1.45 1.50 1.35 1.07 1.08 1.12 0.98 0.98 0.80 0.57 0.36 0.18 0.09 0.01 0.00 0.00 0.00 0.00 0.00 0.00 0.00 0.00 0.00 0.00 0.00 0.00 0.00 0.00 0.00 0.00 0.00 0.00
0.21 0.23 0.28 0.38 0.53 0.54 0.62 0.84 1.23 1.28 1.54 1.86 1.78 1.60 1.53 1.28 1.17 0.99 0.77 0.81 0.68 0.53 0.36 0.16 0.07 0.01 0.00 0.00 0.00 0.00 0.00 0.00 0.00 0.00 0.00 0.00 0.00 0.00 0.00 0.00 0.00 0.00 0.00
0.15 0.24 0.23 0.24 0.30 0.44 0.56 0.61 0.81 1.12 1.33 1.62 2.06 2.42 2.26 1.89 1.18 0.72 0.77 0.56 0.61 0.66 0.53 0.40 0.21 0.05 0.00 0.00 0.00 0.00 0.00 0.00 0.00 0.00 0.00 0.00 0.00 0.00 0.00 0.00 0.00 0.00 0.00
0.03 0.12 0.25 0.26 0.26 0.28 0.36 0.43 0.51 0.73 0.96 1.27 1.68 2.16 2.53 2.22 1.44 0.67 0.54 0.57 0.51 0.44 0.56 0.58 0.51 0.24 0.02 0.00 0.00 0.00 0.00 0.00 0.00 0.00 0.00 0.00 0.00 0.00 0.00 0.00 0.00 0.00 0.00
0.00 0.02 0.09 0.22 0.27 0.28 0.30 0.36 0.37 0.38 0.53 0.75 1.03 1.49 2.02 2.28 1.94 1.43 1.13 0.82 0.71 0.57 0.39 0.45 0.54 0.52 0.27 0.03 0.01 0.01 0.00 0.00 0.00 0.00 0.00 0.00 0.00 0.00 0.00 0.01 0.00 0.00 0.00
0.00 0.00 0.02 0.08 0.22 0.27 0.31 0.35 0.39 0.38 0.34 0.39 0.55 0.67 0.89 1.08 1.31 1.59 1.92 1.99 1.33 0.84 0.54 0.39 0.41 0.40 0.35 0.25 0.04 0.00 0.01 0.00 0.00 0.00 0.00 0.00 0.00 0.00 0.00 0.00 0.00 0.01 0.00
0.00 0.00 0.01 0.02 0.09 0.23 0.27 0.32 0.34 0.33 0.29 0.26 0.27 0.29 0.34 0.48 0.59 0.81 1.37 1.81 2.00 1.47 1.14 0.75 0.50 0.59 0.46 0.39 0.32 0.07 0.00 0.00 0.00 0.01 0.00 0.00 0.00 0.00 0.00 0.00 0.00 0.00 0.00
0.00 0.00 0.00 0.01 0.02 0.08 0.19 0.24 0.28 0.28 0.27 0.25 0.23 0.19 0.16 0.16 0.30 0.48 0.66 0.94 1.33 1.56 1.51 1.19 0.86 0.78 0.40 0.38 0.45 0.41 0.18 0.05 0.01 0.01 0.05 0.04 0.02 0.01 0.00 0.00 0.00 0.00 0.00
0.00 0.00 0.00 0.00 0.00 0.02 0.08 0.17 0.22 0.26 0.25 0.27 0.25 0.23 0.19 0.14 0.13 0.19 0.28 0.48 0.62 0.84 1.25 1.54 1.38 0.98 0.65 0.56 0.58 0.58 0.62 0.56 0.36 0.22 0.17 0.17 0.10 0.05 0.03 0.02 0.02 0.01 0.01
0.00 0.00 0.00 0.00 0.00 0.00 0.03 0.08 0.15 0.22 0.27 0.27 0.27 0.25 0.22 0.16 0.18 0.18 0.12 0.13 0.26 0.43 0.58 0.71 0.89 0.98 0.92 0.93 1.04 0.94 0.99 1.08 1.02 0.70 0.41 0.26 0.21 0.21 0.19 0.17 0.15 0.12 0.10
0.00 0.00 0.00 0.00 0.00 0.00 0.00 0.03 0.08 0.15 0.25 0.31 0.37 0.30 0.30 0.29 0.38 0.48 0.44 0.33 0.23 0.25 0.33 0.34 0.41 0.48 0.72 0.98 1.00 0.96 1.01 1.16 1.16 0.84 0.68 0.59 0.47 0.38 0.32 0.26 0.20 0.18 0.18
0.00 0.00 0.00 0.00 0.00 0.00 0.00 0.00 0.01 0.04 0.06 0.12 0.18 0.23 0.20 0.30 0.27 0.29 0.30 0.39 0.42 0.33 0.20 0.20 0.30 0.39 0.50 0.62 0.74 0.83 0.88 1.05 1.03 0.98 0.87 0.76 0.63 0.54 0.46 0.40 0.38 0.36 0.32
0.00 0.00 0.00 0.00 0.00 0.00 0.00 0.00 0.00 0.00 0.01 0.02 0.07 0.12 0.13 0.12 0.14 0.19 0.26 0.29 0.35 0.29 0.27 0.30 0.32 0.35 0.41 0.48 0.57 0.61 0.66 0.74 0.80 0.79 0.83 0.87 0.84 0.80 0.96 0.68 0.58 0.53 0.62
0.00 0.00 0.00 0.00 0.00 0.00 0.00 0.00 0.00 0.00 0.00 0.00 0.01 0.03 0.07 0.08 0.08 0.12 0.18 0.19 0.24 0.30 0.40 0.45 0.43 0.47 0.48 0.49 0.50 0.52 0.54 0.53 0.54 0.64 0.70 0.74 0.79 0.78 0.79 0.81 0.79 0.72 0.63
0.00 0.00 0.00 0.00 0.00 0.00 0.00 0.00 0.00 0.00 0.00 0.00 0.00 0.00 0.01 0.03 0.05 0.07 0.10 0.16 0.25 0.31 0.38 0.44 0.51 0.51 0.52 0.57 0.58 0.57 0.58 0.61 0.58 0.46 0.50 0.58 0.63 0.66 0.71 0.73 0.75 0.99 0.97
0.00 0.00 0.00 0.00 0.00 0.00 0.00 0.00 0.00 0.00 0.00 0.00 0.00 0.00 0.00 0.00 0.02 0.05 0.07 0.10 0.16 0.26 0.31 0.33 0.38 0.45 0.51 0.53 0.57 0.61 0.61 0.66 0.65 0.55 0.48 0.46 0.51 0.56 0.60 0.64 0.64 0.62 0.61
0.00 0.00 0.00 0.01 0.00 0.00 0.00 0.00 0.00 0.00 0.00 0.00 0.00 0.00 0.01 0.00 0.00 0.01 0.04 0.07 0.09 0.14 0.21 0.27 0.30 0.33 0.37 0.43 0.49 0.52 0.56 0.61 0.63 0.65 0.63 0.58 0.49 0.43 0.44 0.48 0.51 0.51 0.53
0.00 0.00 0.00 0.00 0.00 0.00 0.00 0.00 0.00 0.00 0.00 0.00 0.00 0.00 0.00 0.00 0.00 0.00 0.00 0.02 0.05 0.07 0.10 0.16 0.21 0.26 0.30 0.34 0.37 0.41 0.45 0.49 0.52 0.56 0.59 0.60 0.61 0.59 0.52 0.45 0.40 0.40 0.43
0.00 0.00 0.00 0.00 0.00 0.00 0.01 0.00 0.00 0.00 0.00 0.00 0.00 0.00 0.00 0.00 0.00 0.00 0.00 0.00 0.00 0.02 0.05 0.07 0.11 0.16 0.21 0.24 0.27 0.31 0.32 0.36 0.41 0.44 0.44 0.47 0.49 0.51 0.54 0.55 0.53 0.48 0.44
0.00 0.00 0.00 0.00 0.00 0.01 0.01 0.00 0.00 0.00 0.00 0.00 0.00 0.00 0.00 0.00 0.00 0.00 0.00 0.00 0.00 0.00 0.01 0.03 0.05 0.07 0.12 0.18 0.22 0.23 0.27 0.26 0.26 0.29 0.32 0.34 0.35 0.37 0.38 0.39 0.44 0.47 0.48
0.04 0.01 0.00 0.00 0.01 0.01 0.02 0.01 0.00 0.00 0.00 0.00 0.00 0.00 0.00 0.00 0.00 0.00 0.00 0.00 0.00 0.00 0.00 0.00 0.00 0.02 0.04 0.09 0.14 0.18 0.26 0.20 0.18 0.19 0.22 0.24 0.26 0.27 0.28 0.28 0.30 0.32 0.34
0.03 0.03 0.02 0.01 0.01 0.01 0.01 0.01 0.00 0.00 0.00 0.00 0.00 0.00 0.00 0.00 0.00 0.00 0.00 0.00 0.00 0.00 0.00 0.00 0.00 0.00 0.00 0.01 0.03 0.09 0.13 0.16 0.13 0.14 0.15 0.17 0.18 0.20 0.20 0.21 0.22 0.22 0.24